| time (UTC) | temp F | wind direction | speed knots | gust knots | rain 1hr in | rain 24hr in | rain mn in | humidity % | barometer mb |
| 20260510033430 | 75 | 135 | 5.2 | 10.4 | 0.00 | 0.00 | 0.00 | 69 | 1022.4 |
| 20260510032428 | 75 | 180 | 3.5 | 7.0 | 0.00 | 0.00 | 0.00 | 69 | 1022.5 |
| 20260510031429 | 75 | 180 | 4.3 | 8.7 | 0.00 | 0.00 | 0.00 | 69 | 1022.5 |
| 20260510030429 | 76 | 158 | 3.5 | 5.2 | 0.00 | 0.00 | 0.00 | 68 | 1022.5 |
| 20260510025450 | 76 | 158 | 1.7 | 5.2 | 0.00 | 0.00 | 0.00 | 67 | 1022.7 |
| 20260510024429 | 77 | 90 | 1.7 | 2.6 | 0.00 | 0.00 | 0.00 | 66 | 1022.6 |
| 20260510023450 | 76 | 113 | 1.7 | 2.6 | 0.00 | 0.00 | 0.00 | 67 | 1022.7 |
| 20260510022428 | 76 | 113 | 3.5 | 4.3 | 0.00 | 0.00 | 0.00 | 66 | 1022.9 |
| 20260510021434 | 76 | 180 | 6.1 | 7.8 | 0.00 | 0.00 | 0.00 | 66 | 1023.0 |
| 20260510020429 | 76 | 113 | 5.2 | 8.7 | 0.00 | 0.00 | 0.00 | 66 | 1023.2 |
| 20260510015435 | 75 | 135 | 1.7 | 3.5 | 0.00 | 0.00 | 0.00 | 68 | 1023.2 |
| 20260510014429 | 74 | 113 | 3.5 | 7.8 | 0.00 | 0.00 | 0.00 | 68 | 1023.4 |
| 20260510013429 | 75 | 180 | 6.1 | 9.6 | 0.00 | 0.00 | 0.00 | 68 | 1023.6 |
| 20260510012430 | 75 | 180 | 4.3 | 7.0 | 0.00 | 0.00 | 0.00 | 69 | 1023.7 |
| 20260510011432 | 75 | 113 | 6.1 | 10.4 | 0.00 | 0.00 | 0.00 | 70 | 1023.6 |
| 20260510010429 | 74 | 180 | 6.1 | 10.4 | 0.00 | 0.00 | 0.00 | 72 | 1023.9 |
| 20260510005449 | 73 | 158 | 3.5 | 5.2 | 0.00 | 0.00 | 0.00 | 73 | 1023.9 |
| 20260510004430 | 73 | 180 | 1.7 | 2.6 | 0.00 | 0.00 | 0.00 | 74 | 1024.1 |
| 20260510003430 | 73 | 180 | 5.2 | 7.8 | 0.00 | 0.00 | 0.00 | 73 | 1024.1 |
| 20260510002431 | 74 | 180 | 2.6 | 3.5 | 0.00 | 0.00 | 0.00 | 72 | 1024.1 |
| 20260510001429 | 74 | 203 | 4.3 | 7.0 | 0.00 | 0.00 | 0.00 | 71 | 1024.1 |
| 20260510000449 | 73 | 180 | 3.5 | 6.1 | 0.00 | 0.00 | 0.00 | 72 | 1024.2 |
| 20260509235429 | 73 | 225 | 6.1 | 8.7 | 0.00 | 0.00 | 0.00 | 72 | 1024.1 |
| 20260509234429 | 73 | 158 | 6.1 | 7.8 | 0.00 | 0.00 | 0.00 | 73 | 1024.2 |
| 20260509233428 | 72 | 180 | 5.2 | 9.6 | 0.00 | 0.00 | 0.00 | 74 | 1024.0 |
| 20260509232430 | 73 | 158 | 3.5 | 5.2 | 0.00 | 0.00 | 0.00 | 74 | 1023.8 |
| 20260509231434 | 72 | 203 | 4.3 | 7.8 | 0.00 | 0.00 | 0.00 | 75 | 1023.7 |
| 20260509230429 | 71 | 203 | 3.5 | 7.0 | 0.00 | 0.00 | 0.00 | 75 | 1023.8 |
| 20260509225450 | 71 | 203 | 3.5 | 7.0 | 0.00 | 0.00 | 0.00 | 75 | 1023.7 |
| 20260509224428 | 71 | 225 | 6.1 | 11.3 | 0.00 | 0.00 | 0.00 | 76 | 1023.7 |
| 20260509223429 | 70 | 203 | 5.2 | 7.8 | 0.00 | 0.00 | 0.00 | 76 | 1023.6 |
| 20260509222430 | 69 | 180 | 3.5 | 4.3 | 0.00 | 0.00 | 0.00 | 77 | 1023.6 |
| 20260509221429 | 69 | 180 | 4.3 | 7.0 | 0.00 | 0.00 | 0.00 | 78 | 1023.5 |
| 20260509220449 | 68 | 203 | 2.6 | 4.3 | 0.00 | 0.00 | 0.00 | 78 | 1023.5 |
| 20260509215429 | 67 | 225 | 2.6 | 4.3 | 0.00 | 0.00 | 0.00 | 79 | 1023.5 |
| 20260509214428 | 67 | 203 | 2.6 | 3.5 | 0.00 | 0.00 | 0.00 | 80 | 1023.3 |
| 20260509213429 | 66 | 203 | 2.6 | 4.3 | 0.00 | 0.00 | 0.00 | 81 | 1023.2 |
| 20260509212428 | 65 | 203 | 1.7 | 2.6 | 0.00 | 0.00 | 0.00 | 82 | 1023.1 |
| 20260509211451 | 65 | 225 | 2.6 | 3.5 | 0.00 | 0.00 | 0.00 | 83 | 1023.0 |
| 20260509210509 | 64 | 180 | 1.7 | 2.6 | 0.00 | 0.00 | 0.00 | 84 | 1022.8 |
| 20260509205429 | 63 | 180 | 0.9 | 0.9 | 0.00 | 0.00 | 0.00 | 84 | 1022.7 |
| 20260509204428 | 63 | 180 | 0.9 | 1.7 | 0.00 | 0.00 | 0.00 | 84 | 1022.6 |
| 20260509203429 | 63 | 0.0 | 0.9 | 0.00 | 0.00 | 0.00 | 83 | 1022.6 | |
| 20260509202453 | 64 | 0.0 | 0.9 | 0.00 | 0.00 | 0.00 | 83 | 1022.4 | |
| 20260509201449 | 64 | 180 | 0.9 | 1.7 | 0.00 | 0.00 | 0.00 | 83 | 1022.3 |
| 20260509200428 | 64 | 180 | 0.9 | 1.7 | 0.00 | 0.00 | 0.00 | 83 | 1022.2 |
| 20260509195428 | 64 | 180 | 0.9 | 1.7 | 0.00 | 0.00 | 0.00 | 83 | 1022.2 |
| 20260509194429 | 64 | 203 | 1.7 | 2.6 | 0.00 | 0.00 | 0.00 | 83 | 1022.1 |
| 20260509193429 | 64 | 203 | 1.7 | 2.6 | 0.00 | 0.00 | 0.00 | 82 | 1021.8 |
| 20260509192429 | 64 | 180 | 0.9 | 2.6 | 0.00 | 0.00 | 0.00 | 82 | 1021.9 |
| 20260509191428 | 64 | 203 | 2.6 | 3.5 | 0.00 | 0.00 | 0.00 | 81 | 1021.9 |
| 20260509190429 | 63 | 203 | 2.6 | 4.3 | 0.00 | 0.00 | 0.00 | 83 | 1021.9 |
| 20260509185429 | 62 | 158 | 2.6 | 3.5 | 0.00 | 0.00 | 0.00 | 86 | 1021.7 |
| 20260509184430 | 60 | 90 | 1.7 | 2.6 | 0.00 | 0.00 | 0.00 | 88 | 1021.7 |
| 20260509183428 | 58 | 90 | 0.9 | 1.7 | 0.00 | 0.00 | 0.00 | 88 | 1021.7 |
| 20260509182429 | 57 | 0.0 | 0.0 | 0.00 | 0.00 | 0.00 | 88 | 1021.6 | |
| 20260509181428 | 57 | 0.0 | 0.0 | 0.00 | 0.00 | 0.00 | 88 | 1021.6 | |
| 20260509180433 | 57 | 0.0 | 0.0 | 0.00 | 0.00 | 0.00 | 87 | 1021.5 | |
| 20260509175449 | 57 | 0.0 | 0.9 | 0.00 | 0.00 | 0.00 | 87 | 1021.4 | |
| 20260509174428 | 57 | 0.0 | 0.0 | 0.00 | 0.00 | 0.00 | 87 | 1021.3 | |
| 20260509173429 | 58 | 0.0 | 0.0 | 0.00 | 0.00 | 0.00 | 87 | 1021.2 | |
| 20260509172434 | 58 | 0.0 | 0.0 | 0.00 | 0.00 | 0.00 | 86 | 1021.1 | |
| 20260509171434 | 58 | 0.0 | 0.0 | 0.00 | 0.00 | 0.00 | 86 | 1021.2 | |
| 20260509170428 | 58 | 0.0 | 0.9 | 0.00 | 0.00 | 0.00 | 86 | 1021.1 | |
| 20260509165447 | 58 | 0.0 | 0.0 | 0.00 | 0.00 | 0.00 | 86 | 1021.2 | |
| 20260509164433 | 58 | 0.0 | 0.0 | 0.00 | 0.00 | 0.00 | 86 | 1021.1 | |
| 20260509163449 | 59 | 0.0 | 0.0 | 0.00 | 0.00 | 0.00 | 86 | 1021.2 | |
| 20260509162428 | 59 | 0.0 | 0.0 | 0.00 | 0.00 | 0.00 | 86 | 1021.3 | |
| 20260509161429 | 58 | 0.0 | 0.0 | 0.00 | 0.00 | 0.00 | 87 | 1021.3 | |
| 20260509160448 | 58 | 0.0 | 0.9 | 0.00 | 0.00 | 0.00 | 88 | 1021.3 | |
| 20260509155428 | 57 | 0.0 | 0.9 | 0.00 | 0.00 | 0.00 | 89 | 1021.4 | |
| 20260509154428 | 56 | 0.0 | 0.9 | 0.00 | 0.00 | 0.00 | 89 | 1021.5 | |
| 20260509153428 | 56 | 0.0 | 0.0 | 0.00 | 0.00 | 0.00 | 89 | 1021.6 | |
| 20260509152429 | 56 | 0.0 | 0.0 | 0.00 | 0.00 | 0.00 | 88 | 1021.6 | |
| 20260509151448 | 56 | 0.0 | 0.0 | 0.00 | 0.00 | 0.00 | 88 | 1021.6 | |
| 20260509150428 | 56 | 0.0 | 0.0 | 0.00 | 0.00 | 0.00 | 88 | 1021.7 | |
| 20260509145428 | 56 | 0.0 | 0.9 | 0.00 | 0.00 | 0.00 | 88 | 1021.7 | |
| 20260509144453 | 56 | 0.0 | 0.9 | 0.00 | 0.00 | 0.00 | 88 | 1021.8 | |
| 20260509143430 | 56 | 0.0 | 0.0 | 0.00 | 0.00 | 0.00 | 87 | 1021.8 | |
| 20260509142429 | 56 | 0.0 | 0.0 | 0.00 | 0.00 | 0.00 | 87 | 1021.8 | |
| 20260509141430 | 56 | 0.0 | 0.0 | 0.00 | 0.00 | 0.00 | 87 | 1021.8 | |
| 20260509140430 | 56 | 0.0 | 0.0 | 0.00 | 0.00 | 0.00 | 86 | 1021.9 | |
| 20260509135419 | 56 | 0.0 | 0.0 | 0.00 | 0.00 | 0.00 | 86 | 1022.0 | |
| 20260509134429 | 57 | 0.0 | 0.9 | 0.00 | 0.00 | 0.00 | 86 | 1022.0 | |
| 20260509133419 | 57 | 0.0 | 0.0 | 0.00 | 0.00 | 0.00 | 85 | 1022.0 | |
| 20260509132430 | 57 | 0.0 | 0.9 | 0.00 | 0.00 | 0.00 | 84 | 1022.0 | |
| 20260509131420 | 58 | 0.0 | 0.9 | 0.00 | 0.00 | 0.00 | 84 | 1022.0 | |
| 20260509130429 | 58 | 0.0 | 0.0 | 0.00 | 0.00 | 0.00 | 83 | 1022.0 | |
| 20260509125420 | 58 | 90 | 0.9 | 1.7 | 0.00 | 0.00 | 0.00 | 82 | 1022.0 |
| 20260509124430 | 59 | 90 | 0.9 | 0.9 | 0.00 | 0.00 | 0.00 | 81 | 1021.9 |
| 20260509123421 | 59 | 0.0 | 0.0 | 0.00 | 0.00 | 0.00 | 80 | 1022.0 | |
| 20260509122454 | 60 | 0.0 | 0.0 | 0.00 | 0.00 | 0.00 | 80 | 1021.9 | |
| 20260509121419 | 60 | 90 | 0.9 | 1.7 | 0.00 | 0.00 | 0.00 | 80 | 1021.8 |
| 20260509120428 | 60 | 90 | 0.9 | 1.7 | 0.00 | 0.00 | 0.00 | 81 | 1021.7 |
| 20260509115421 | 60 | 90 | 0.9 | 1.7 | 0.00 | 0.00 | 0.00 | 81 | 1021.7 |
| 20260509114429 | 60 | 90 | 0.9 | 1.7 | 0.00 | 0.00 | 0.00 | 81 | 1021.8 |
| 20260509113426 | 60 | 90 | 0.9 | 1.7 | 0.00 | 0.00 | 0.00 | 83 | 1021.9 |
| 20260509112437 | 59 | 0.0 | 0.9 | 0.00 | 0.00 | 0.00 | 83 | 1021.8 | |
| 20260509111421 | 60 | 0.0 | 0.0 | 0.00 | 0.00 | 0.00 | 83 | 1022.0 | |
| 20260509110431 | 60 | 0.0 | 0.0 | 0.00 | 0.00 | 0.00 | 82 | 1022.0 | |
| 20260509105428 | 60 | 90 | 0.9 | 1.7 | 0.00 | 0.00 | 0.00 | 82 | 1022.0 |
| 20260509104421 | 61 | 0.0 | 0.9 | 0.00 | 0.00 | 0.00 | 82 | 1022.2 | |
| 20260509103423 | 61 | 0.0 | 0.0 | 0.00 | 0.00 | 0.00 | 81 | 1022.1 | |
| 20260509102428 | 61 | 0.0 | 0.0 | 0.00 | 0.00 | 0.00 | 80 | 1022.1 | |
| 20260509101600 | 62 | 0.0 | 0.0 | 0.00 | 0.00 | 0.00 | 79 | 1022.0 | |
| 20260509100429 | 62 | 0.0 | 0.0 | 0.00 | 0.00 | 0.00 | 79 | 1021.8 | |
| 20260509095428 | 63 | 0.0 | 0.0 | 0.00 | 0.00 | 0.00 | 78 | 1021.7 | |
| 20260509094439 | 64 | 0.0 | 0.0 | 0.00 | 0.00 | 0.00 | 77 | 1021.6 | |
| 20260509093429 | 64 | 0.0 | 0.0 | 0.00 | 0.00 | 0.00 | 77 | 1021.6 | |
| 20260509092433 | 64 | 0.0 | 0.0 | 0.00 | 0.00 | 0.00 | 76 | 1021.5 | |
| 20260509091419 | 65 | 0.0 | 0.0 | 0.00 | 0.00 | 0.00 | 76 | 1021.5 | |
| 20260509090421 | 65 | 0.0 | 0.9 | 0.00 | 0.00 | 0.00 | 75 | 1021.2 | |
| 20260509085442 | 65 | 0.0 | 0.9 | 0.00 | 0.00 | 0.00 | 75 | 1021.2 | |
| 20260509084449 | 65 | 90 | 0.9 | 0.9 | 0.00 | 0.00 | 0.00 | 75 | 1021.1 |
| 20260509083420 | 66 | 90 | 0.9 | 0.9 | 0.00 | 0.00 | 0.00 | 74 | 1021.0 |
| 20260509082419 | 67 | 89 | 1.7 | 0.0 | 0.00 | 0.00 | 0.00 | 72 | 1020.8 |
| 20260509081438 | 67 | 0.0 | 0.9 | 0.00 | 0.00 | 0.00 | 72 | 1020.7 | |
| 20260509080417 | 67 | 90 | 0.9 | 0.9 | 0.00 | 0.00 | 0.00 | 72 | 1020.7 |
| 20260509075428 | 67 | 90 | 0.9 | 0.9 | 0.00 | 0.00 | 0.00 | 72 | 1020.6 |
| 20260509074448 | 68 | 90 | 0.9 | 0.9 | 0.00 | 0.00 | 0.00 | 73 | 1020.4 |
| 20260509073426 | 69 | 0.0 | 0.9 | 0.00 | 0.00 | 0.00 | 71 | 1020.4 | |
| 20260509072428 | 70 | 0.0 | 0.0 | 0.00 | 0.00 | 0.00 | 70 | 1020.2 | |
| 20260509071428 | 71 | 0.0 | 0.0 | 0.00 | 0.00 | 0.00 | 68 | 1020.1 | |
| 20260509070429 | 71 | 0.0 | 0.9 | 0.00 | 0.00 | 0.00 | 66 | 1019.9 | |
| 20260509065428 | 72 | 90 | 0.9 | 1.7 | 0.00 | 0.00 | 0.00 | 66 | 1019.8 |
| 20260509064417 | 72 | 90 | 0.9 | 1.7 | 0.00 | 0.00 | 0.00 | 65 | 1019.7 |
| 20260509063419 | 72 | 90 | 1.7 | 2.6 | 0.00 | 0.00 | 0.00 | 64 | 1019.6 |
| 20260509062440 | 73 | 90 | 0.9 | 2.6 | 0.00 | 0.00 | 0.00 | 63 | 1019.5 |
| 20260509061418 | 73 | 68 | 2.6 | 3.5 | 0.00 | 0.00 | 0.00 | 61 | 1019.4 |
| 20260509060418 | 74 | 113 | 0.9 | 2.6 | 0.00 | 0.00 | 0.00 | 61 | 1019.4 |
| 20260509055418 | 74 | 90 | 2.6 | 3.5 | 0.00 | 0.00 | 0.00 | 61 | 1019.3 |
| 20260509054421 | 75 | 113 | 1.7 | 2.6 | 0.00 | 0.00 | 0.00 | 60 | 1019.4 |
| 20260509053419 | 75 | 158 | 0.9 | 1.7 | 0.00 | 0.00 | 0.00 | 56 | 1019.3 |
| 20260509052518 | 75 | 158 | 1.7 | 2.6 | 0.00 | 0.00 | 0.00 | 56 | 1019.3 |
| 20260509051418 | 75 | 113 | 0.9 | 1.7 | 0.00 | 0.00 | 0.00 | 59 | 1019.2 |
| 20260509050424 | 74 | 0.0 | 0.9 | 0.00 | 0.00 | 0.00 | 58 | 1019.2 | |
| 20260509045418 | 75 | 158 | 0.9 | 1.7 | 0.00 | 0.00 | 0.00 | 57 | 1019.2 |
| 20260509044420 | 75 | 180 | 2.6 | 5.2 | 0.00 | 0.00 | 0.00 | 55 | 1019.2 |
| 20260509043419 | 75 | 68 | 3.5 | 7.0 | 0.00 | 0.00 | 0.00 | 56 | 1019.2 |
| 20260509042423 | 75 | 90 | 1.7 | 2.6 | 0.00 | 0.00 | 0.00 | 54 | 1019.2 |
| 20260509041418 | 76 | 113 | 0.9 | 2.6 | 0.00 | 0.00 | 0.00 | 53 | 1019.2 |
| 20260509040419 | 75 | 158 | 0.9 | 1.7 | 0.00 | 0.00 | 0.00 | 53 | 1019.2 |
| 20260509035418 | 76 | 135 | 1.7 | 2.6 | 0.00 | 0.00 | 0.00 | 53 | 1019.2 |
| 20260509034419 | 76 | 135 | 1.7 | 3.5 | 0.00 | 0.00 | 0.00 | 53 | 1019.2 |